Theta_e
315 315 316 316 317 316 314 314 314 314 314 315 318 318 317 316 315 314 317 317 313 313 314 314 314 313 314 313 309 313 311 313 312 308 308 310 306 309 307 310 308 307 306 305 307 303 301 318 318 313 320 324 324 325
315 315 315 315 316 315 315 314 314 314 313 314 316 318 317 315 313 313 317 318 316 312 315 316 317 318 317 316 313 314 312 312 315 312 313 314 308 311 308 303 313 305 310 308 309 310 316 318 319 324 322 319 320 321
314 314 314 315 315 314 314 313 313 314 313 313 316 317 317 315 313 312 315 315 315 314 315 316 315 318 320 318 320 312 316 316 316 318 313 312 307 312 304 306 308 312 314 308 309 311 313 315 319 321 321 319 320 321
313 313 314 314 313 313 313 312 313 314 313 314 316 317 317 315 312 311 314 316 316 314 309 313 318 317 319 319 318 318 316 318 318 318 313 310 307 313 307 309 308 310 313 309 309 312 313 314 316 317 319 320 319 320
312 312 313 312 311 311 311 312 313 314 315 315 316 316 317 314 312 314 318 320 318 312 308 310 316 316 315 316 315 315 315 315 316 312 311 309 314 310 311 310 307 311 310 306 305 313 313 314 317 318 317 318 319 320
311 312 310 310 310 310 310 311 312 313 315 315 316 315 316 313 311 315 313 318 320 316 309 306 314 312 314 316 315 314 316 315 314 313 312 315 315 311 306 305 312 313 315 316 313 317 317 317 318 320 319 320 320 320
310 309 309 309 309 309 310 311 311 312 314 315 315 315 314 311 315 313 310 314 311 317 309 306 309 312 314 316 316 315 316 316 315 314 312 312 313 312 308 305 313 315 317 317 318 318 315 318 317 321 320 320 320 321
309 309 308 308 309 309 309 311 312 312 314 315 314 314 312 310 309 312 316 309 312 310 310 305 307 308 315 315 313 318 313 313 314 313 316 311 314 313 306 312 314 315 316 317 319 320 319 320 320 320 321 321 319 319
308 308 307 307 308 308 309 310 312 313 314 314 313 310 314 311 312 315 312 312 316 310 307 307 304 304 313 313 317 316 317 309 317 311 311 314 309 305 311 314 315 315 315 316 318 319 319 318 318 319 319 319 319 319
308 308 308 308 308 308 309 310 312 313 313 312 312 311 308 313 313 312 313 310 309 309 310 305 311 305 310 312 312 313 314 309 307 310 317 309 307 314 316 319 320 319 319 319 316 315 317 317 317 318 319 320 320 319
307 307 307 308 308 308 309 310 311 312 309 311 310 308 315 311 316 313 306 304 304 300 307 308 307 306 312 306 308 316 312 313 303 306 307 306 305 314 317 318 322 319 321 321 320 320 320 320 319 319 319 320 320 321
306 307 307 307 307 308 309 310 311 311 310 310 309 311 315 311 309 303 301 305 301 299 308 307 310 311 314 315 309 312 307 309 300 313 306 301 312 318 318 318 319 321 321 321 321 320 321 321 321 320 321 320 321 322
305 306 306 307 307 308 309 310 310 310 309 310 309 304 307 306 295 296 295 299 298 307 310 310 309 313 313 313 311 309 303 302 313 304 302 308 317 319 320 320 320 322 322 321 320 321 322 322 322 321 320 322 320 320
305 306 306 307 307 307 309 310 311 310 308 303 299 290 301 299 301 302 303 307 308 313 313 313 312 312 315 310 310 303 309 308 301 299 301 313 316 319 321 321 320 319 320 320 320 321 321 321 321 322 320 321 319 318
306 306 306 306 307 307 309 309 311 310 305 299 299 294 301 306 309 310 310 309 310 312 308 311 312 311 308 305 309 307 302 298 302 302 311 314 318 319 318 319 319 320 321 321 321 320 320 321 320 318 320 319 320 320
306 305 305 307 307 308 309 309 309 308 303 300 300 299 305 304 305 306 307 307 312 310 310 311 307 304 303 306 302 301 299 298 308 312 314 317 318 319 320 321 322 322 322 321 321 320 320 320 317 318 319 318 318 320
305 304 307 307 308 309 309 307 305 302 300 298 296 304 306 307 306 308 309 310 313 309 306 308 301 300 310 303 301 307 305 310 313 315 317 319 319 321 322 323 322 321 321 322 321 320 320 319 321 317 314 317 317 318
305 308 308 308 309 308 307 306 303 300 296 299 298 306 307 309 307 308 310 312 310 308 309 305 309 302 300 299 303 312 315 318 315 314 314 318 321 323 324 322 322 322 322 321 320 320 318 316 314 313 314 316 316 318
306 308 308 309 309 306 301 301 303 296 298 301 305 307 308 308 310 311 311 312 312 313 310 308 304 302 303 307 307 309 311 312 311 312 314 318 321 322 324 323 323 323 322 321 319 317 316 316 314 315 314 313 317 321
307 307 308 309 309 303 299 299 305 299 298 303 306 305 307 307 309 310 310 309 309 308 303 302 303 307 308 310 313 312 314 316 313 310 310 313 317 321 323 322 321 322 320 319 319 309 314 314 315 314 313 311 313 313
306 308 309 309 305 304 302 300 300 301 303 301 306 306 305 308 306 306 307 310 306 304 303 306 307 309 313 314 314 315 315 316 312 311 311 311 316 321 322 322 321 319 317 318 311 311 310 310 312 313 313 311 311 313
307 309 306 307 302 303 301 305 302 303 300 302 304 304 303 303 304 306 309 305 304 305 307 307 308 309 310 313 313 315 315 315 315 314 306 311 320 322 320 318 317 317 317 312 313 313 312 312 310 311 311 312 310 310
308 307 304 304 299 296 296 307 299 300 296 299 304 301 303 304 306 310 303 306 307 310 312 312 314 315 313 315 315 315 317 316 313 313 316 323 325 325 320 318 318 317 315 314 316 316 314 306 309 310 311 312 312 310
307 302 298 297 297 294 303 297 300 300 299 298 298 298 302 306 309 304 302 309 313 316 315 315 317 316 315 315 312 313 315 315 316 320 325 324 318 318 319 318 317 317 317 316 315 315 314 314 309 316 317 315 311 308
293 294 296 290 299 295 294 295 296 296 295 299 299 299 301 305 300 302 305 311 315 315 315 319 316 311 314 313 314 318 323 321 321 321 323 318 316 317 317 317 317 318 318 316 315 314 313 313 311 312 313 312 311 309
290 296 292 296 296 295 296 295 297 297 299 298 299 302 307 304 299 299 305 311 309 312 314 315 316 317 316 321 317 317 318 322 320 316 318 316 315 315 313 313 313 315 319 318 316 314 312 312 311 310 308 305 298 307
291 295 301 304 302 302 301 302 302 298 297 297 301 302 301 294 292 300 308 310 312 320 320 318 321 316 315 315 317 319 322 319 317 316 320 319 318 318 316 314 313 316 320 318 317 316 312 312 311 311 310 310 310 309
298 302 297 301 301 301 297 300 300 299 301 306 304 298 295 296 300 307 311 317 323 325 322 317 316 316 318 317 318 320 319 321 321 320 319 318 319 319 319 318 319 304 318 318 317 317 315 314 313 312 312 311 311 311
299 303 304 298 299 301 302 302 302 305 306 303 300 304 306 312 316 317 319 322 323 321 317 318 317 319 319 320 320 319 319 317 315 313 311 311 312 315 318 318 318 319 318 317 297 305 314 314 314 313 313 313 313 313
302 305 302 301 300 300 303 306 304 307 310 311 314 315 316 318 322 324 323 323 319 316 317 317 318 317 316 316 316 317 319 319 316 313 311 311 313 317 318 318 318 319 318 317 316 314 299 311 308 315 314 314 314 313
307 304 301 302 301 306 311 310 311 312 315 315 317 315 314 315 320 324 323 323 324 322 318 315 315 316 315 315 315 315 314 318 319 319 319 320 319 319 319 319 319 318 319 318 317 317 316 316 316 315 313 312 312 311
305 303 301 300 305 313 313 312 314 314 315 314 315 318 316 315 311 320 322 322 320 318 313 318 317 316 319 320 321 320 303 320 320 320 318 319 321 320 319 318 319 319 319 315 315 318 317 315 314 316 315 314 313 312
303 304 305 305 307 307 313 312 311 310 313 311 312 314 315 314 310 319 324 323 322 322 323 324 325 323 323 322 322 319 314 320 305 295 297 297 298 308 319 322 321 319 318 318 318 315 314 316 313 314 315 315 314 313
Wind_Speed
11 9 8 9 9 6 7 6 8 9 9 10 12 11 11 14 15 9 3 6 6 4 4 3 2 5 4 4 6 6 7 7 5 6 4 3 6 4 5 2 4 6 6 6 6 8 11 6 3 7 6 4 4 4
11 7 8 9 8 6 7 7 7 8 8 9 10 9 7 10 13 12 2 2 4 5 6 4 9 11 11 9 8 3 6 3 5 4 3 2 5 4 5 5 4 6 4 7 5 7 4 4 5 2 3 2 3 5
9 8 8 8 7 6 7 8 7 7 6 8 9 9 5 6 8 9 5 5 4 4 5 5 4 4 5 11 10 5 3 5 4 5 5 3 6 3 7 5 6 5 5 7 5 4 2 8 5 5 4 5 8 10
8 8 8 8 4 5 7 8 8 8 6 7 8 8 5 5 7 8 4 4 5 4 5 5 3 4 2 7 9 11 8 4 5 4 4 4 5 2 4 5 8 7 2 7 11 13 12 11 7 9 9 10 13 14
8 8 6 3 4 6 7 9 8 7 7 7 7 6 6 5 7 8 2 0 3 6 6 7 10 3 4 3 7 11 11 10 4 5 5 5 2 3 7 5 10 8 8 9 9 8 9 12 13 8 12 13 11 11
7 5 4 5 6 6 7 8 9 8 6 6 6 6 5 4 7 4 5 4 0 4 5 4 4 4 2 5 7 8 8 8 6 4 4 3 2 5 6 8 5 5 6 9 12 14 14 12 13 13 11 10 13 15
7 6 6 6 5 6 7 8 8 8 7 6 6 6 4 4 6 4 6 5 1 4 4 5 3 5 2 3 4 5 7 5 6 5 6 7 6 5 9 12 14 14 11 5 6 6 9 11 7 10 13 15 14 15
8 8 6 6 6 6 8 8 8 7 7 6 6 5 4 6 9 5 3 8 6 4 3 5 3 4 2 2 4 3 5 6 6 6 3 7 4 5 6 8 4 3 3 6 5 5 8 10 12 14 13 14 16 17
9 8 6 6 6 6 7 8 7 6 6 5 3 4 4 5 4 4 5 9 4 4 4 3 4 2 2 2 1 5 4 6 3 6 7 3 7 7 5 8 6 4 6 10 5 9 11 13 14 15 16 17 18 17
9 8 8 7 6 6 7 6 6 6 3 2 5 5 4 3 9 7 5 5 4 3 4 5 1 4 3 0 2 3 4 4 4 3 2 6 8 7 5 6 6 7 7 5 10 12 14 16 16 17 18 17 17 17
9 8 8 7 6 6 6 6 5 1 2 3 3 1 5 3 5 3 3 4 3 4 5 4 5 4 4 5 2 0 2 1 4 5 4 3 3 6 4 2 2 3 4 8 10 13 15 17 17 18 18 18 18 20
6 6 7 6 6 6 6 5 4 3 1 2 2 1 1 4 3 5 4 3 4 5 5 5 3 4 1 2 4 4 4 3 4 2 4 4 5 4 2 3 5 6 7 10 12 15 16 16 17 17 18 18 19 20
7 7 7 7 6 6 6 5 4 1 3 2 3 3 3 4 2 7 7 5 4 5 5 6 5 3 4 5 4 4 5 4 1 5 4 3 6 3 4 5 7 8 9 12 16 16 16 17 17 16 17 18 17 18
7 7 7 7 7 6 5 5 4 5 1 2 3 2 6 6 6 5 5 1 4 2 1 3 2 3 3 4 3 4 1 3 4 5 3 6 5 6 6 7 9 12 14 16 16 15 16 15 15 16 15 14 14 15
7 8 7 8 8 7 5 4 8 1 2 3 4 5 8 5 2 2 3 3 4 2 3 2 3 4 3 4 3 2 3 5 5 1 4 5 7 7 7 9 12 13 13 13 14 14 14 16 16 17 15 13 15 14
6 6 8 8 8 9 7 5 2 1 2 3 4 5 5 5 7 6 6 5 3 2 3 4 3 4 6 3 5 6 4 6 1 2 3 3 6 7 8 10 11 11 12 13 13 13 15 15 16 16 16 13 13 13
6 4 5 11 10 9 11 2 2 4 3 4 5 8 8 5 5 3 4 3 3 5 5 3 6 6 0 4 5 4 3 3 3 3 3 5 6 8 9 10 10 11 11 11 13 13 14 15 16 13 14 14 14 12
5 1 6 8 11 8 2 3 3 3 4 3 5 8 7 6 6 5 4 4 5 6 5 4 4 6 5 5 4 1 2 1 4 5 5 7 7 8 8 9 9 10 10 11 12 13 13 14 12 10 13 14 12 7
1 1 2 14 8 3 4 4 3 3 5 4 9 6 5 6 7 7 6 4 6 4 3 3 7 7 9 8 8 6 4 4 4 5 6 6 4 8 10 8 9 8 11 11 11 10 8 11 8 9 9 9 6 5
8 8 8 16 8 2 4 3 1 3 4 5 8 9 8 8 7 8 9 9 9 8 8 8 11 10 8 6 4 6 4 2 4 7 8 7 7 9 8 8 7 8 8 9 10 10 9 7 6 7 7 7 7 7
5 4 5 10 4 3 2 3 4 3 4 5 6 7 6 7 9 10 10 8 9 10 12 13 13 12 13 11 9 8 6 5 7 8 8 8 8 7 7 7 6 5 7 9 7 8 8 8 8 7 7 8 7 6
2 7 2 3 2 3 3 3 2 1 3 5 4 5 7 9 9 8 6 8 9 11 12 12 11 11 11 12 12 13 13 12 9 7 6 5 5 5 5 4 6 7 7 6 5 7 8 8 8 8 8 7 7 9
6 2 2 2 3 3 3 4 4 4 3 3 3 4 4 4 3 3 5 7 7 8 8 9 10 11 12 12 9 10 10 9 8 6 5 3 1 1 1 5 6 5 6 6 5 6 7 7 9 9 8 9 10 10
1 1 3 5 4 5 4 3 3 4 4 4 4 5 4 3 5 3 5 4 5 4 2 5 6 6 5 6 7 6 7 7 5 3 3 4 4 4 4 6 6 7 6 6 7 7 7 7 6 10 11 13 13 13
3 3 3 4 3 3 4 4 4 5 5 8 4 2 2 2 4 5 5 1 1 0 2 4 3 3 4 6 5 4 3 5 6 7 4 6 6 6 6 6 6 4 6 6 7 8 8 8 10 12 12 12 14 16
4 6 4 7 5 4 5 4 7 7 2 2 4 5 5 4 3 3 3 4 3 2 2 3 2 5 3 6 7 7 8 7 7 7 5 2 5 6 6 6 7 5 3 5 6 8 10 11 10 13 13 15 12 16
4 5 5 5 4 3 4 2 1 2 5 6 3 2 2 2 3 3 2 2 2 2 5 3 5 5 8 9 6 5 3 5 6 8 6 4 4 5 5 6 8 5 4 6 7 8 9 11 11 12 12 12 14 14
3 2 3 7 3 1 3 4 4 3 2 4 4 1 2 4 3 2 2 1 1 5 8 9 6 5 4 10 9 6 5 6 7 7 6 6 5 5 7 7 7 5 6 7 6 7 8 9 10 10 11 11 11 11
3 3 2 2 4 5 4 2 2 2 2 0 3 2 5 4 6 3 3 3 2 2 9 10 9 6 4 4 4 4 6 7 9 9 11 8 7 6 6 6 6 4 6 6 9 9 8 7 7 8 9 8 7 7
2 3 3 3 3 1 1 2 3 3 4 5 4 1 3 4 3 1 1 0 2 5 6 9 11 11 9 8 7 7 5 4 5 5 6 6 8 8 6 6 5 5 6 6 8 7 4 7 6 5 3 4 4 5
2 0 2 2 3 1 2 4 6 5 3 3 3 2 3 4 3 2 3 3 1 2 5 6 5 6 7 7 7 8 8 5 4 1 2 2 7 7 6 7 4 2 5 6 6 6 6 4 5 5 6 7 4 3
0 1 2 3 3 1 2 3 1 2 5 5 4 3 3 3 3 2 4 4 3 4 3 0 5 5 3 4 4 4 4 3 7 5 3 2 2 5 7 3 3 5 5 6 4 3 3 1 3 3 4 5 4 4
2 4 5 4 3 3 2 2 2 4 3 4 4 3 3 2 4 3 3 4 4 4 2 2 2 4 4 3 6 7 8 7 8 10 10 10 9 10 5 6 8 6 4 6 9 6 6 6 3 6 3 3 3 3
Wind_Direction
278 280 292 291 285 273 292 322 323 324 335 333 337 353 360 359 358 336 45 12 335 311 294 236 235 251 237 249 283 60 251 190 238 246 271 189 260 152 258 319 268 255 249 218 241 268 246 28 224 307 45 78 12 6
270 277 287 288 282 271 288 297 307 312 323 324 331 340 3 359 354 333 311 21 326 259 340 312 288 287 275 286 294 219 341 312 352 274 227 306 224 205 320 257 176 251 298 335 297 36 73 352 326 34 340 3 11 326
259 267 278 283 273 276 290 300 306 298 311 312 320 330 356 354 359 342 326 341 249 264 236 233 170 108 186 230 257 277 173 333 235 345 325 327 266 291 263 244 289 212 232 253 304 174 324 329 312 276 258 297 315 306
264 267 272 267 264 285 292 303 296 284 288 298 309 323 340 339 348 326 325 1 280 293 287 103 154 272 304 253 229 232 293 257 282 250 256 271 275 139 290 327 283 303 325 277 272 268 280 282 301 284 282 292 296 294
259 268 256 258 274 286 300 300 299 294 286 298 305 316 325 326 327 293 288 23 329 317 328 308 315 123 225 207 239 236 239 233 228 220 232 247 311 270 244 288 263 257 250 267 288 327 300 298 295 286 301 298 295 296
256 233 233 252 266 290 292 290 295 293 284 295 298 306 310 315 315 263 207 152 155 331 281 289 54 202 244 279 234 207 208 215 238 246 251 252 281 261 264 261 312 258 260 274 286 293 295 294 295 289 288 306 306 304
219 228 243 257 274 279 278 277 281 288 294 292 289 298 293 301 293 296 0 28 1 292 269 280 248 128 286 231 153 173 188 201 237 229 241 261 248 198 264 269 280 282 300 311 297 283 263 255 301 318 302 295 295 292
223 233 241 255 258 273 277 275 270 277 283 281 284 286 276 277 267 241 117 200 265 272 255 274 270 228 2 214 171 176 180 203 196 249 224 250 163 232 265 276 310 271 248 256 270 267 286 299 293 292 297 299 294 290
228 235 242 247 256 267 275 288 278 267 279 271 267 279 244 226 221 75 93 144 209 296 289 241 279 71 343 204 243 183 233 221 118 239 234 259 243 221 266 302 271 262 276 306 308 290 294 297 303 299 295 296 294 295
225 229 240 238 250 262 268 277 287 273 260 211 249 223 194 95 114 156 183 200 197 199 223 257 333 249 295 250 196 257 202 260 249 147 103 235 256 285 341 329 300 286 289 293 295 303 310 302 303 302 297 296 292 296
232 231 230 226 239 252 260 269 278 202 147 233 220 232 68 137 224 218 228 230 151 230 220 236 253 263 143 276 282 240 300 220 256 112 265 220 216 112 93 97 16 318 284 286 292 294 297 297 298 300 300 299 297 290
212 213 215 223 239 247 250 250 259 198 236 5 340 334 269 225 219 238 214 170 215 245 176 224 160 220 160 257 250 181 254 201 257 86 239 243 103 87 16 11 340 317 299 297 301 301 298 296 301 303 301 302 303 299
216 222 222 226 235 242 242 237 231 162 165 228 223 233 202 158 230 222 197 189 208 198 193 191 189 221 172 233 240 232 227 231 75 227 240 43 78 27 4 356 335 319 299 299 300 301 303 302 305 305 305 300 306 297
231 229 224 225 230 240 231 219 194 152 149 205 168 254 229 189 231 208 227 206 103 211 131 272 239 231 189 193 253 245 162 246 242 233 213 88 17 350 343 336 310 314 313 308 309 307 307 311 311 313 309 301 290 285
238 234 230 231 219 219 212 197 174 164 154 198 198 226 221 247 285 256 262 218 177 237 283 258 233 251 174 241 222 239 208 251 242 242 66 38 4 347 326 318 318 315 316 314 318 314 319 316 320 312 312 307 298 292
226 236 226 192 193 190 179 159 154 125 192 224 247 253 235 253 235 211 224 235 163 202 248 224 261 229 224 240 207 203 244 216 87 83 59 31 3 341 329 320 318 320 318 318 319 325 320 327 315 306 308 299 297 297
185 248 139 185 185 166 164 162 154 194 218 208 229 241 271 308 300 329 254 222 148 205 233 210 226 208 61 236 221 210 269 72 57 68 41 27 337 322 318 320 322 325 323 326 328 326 331 320 322 311 303 307 300 292
235 126 173 155 167 141 171 215 196 211 222 206 232 216 214 252 264 253 229 201 226 227 228 247 300 225 229 234 248 356 77 28 25 13 352 351 336 327 323 316 324 321 324 327 331 329 338 332 323 317 312 310 304 291
263 329 280 164 175 165 165 179 220 222 217 234 237 263 248 248 239 259 269 231 236 267 264 240 247 238 241 253 278 284 243 224 295 333 320 320 325 324 319 316 310 326 329 327 337 343 345 319 318 319 330 327 332 349
249 260 261 188 178 183 178 166 207 240 227 214 229 242 235 249 249 238 237 230 222 217 215 226 241 252 254 259 277 296 319 64 303 306 316 329 334 325 328 318 337 329 331 342 3 359 340 338 346 345 349 345 351 7
205 211 188 158 200 253 249 166 203 233 267 249 242 227 246 223 235 236 234 224 218 224 237 242 252 256 258 268 266 243 258 237 277 299 304 310 330 320 310 359 338 340 5 24 5 352 354 357 347 355 0 15 6 12
122 151 124 157 192 184 247 216 241 180 251 275 260 219 257 238 232 239 237 226 235 237 236 251 256 257 250 242 246 246 257 270 266 269 232 261 296 306 9 344 3 35 43 42 11 18 8 13 5 10 12 12 26 33
152 123 120 150 188 181 268 160 193 184 245 257 231 232 219 221 217 133 228 224 247 246 248 248 251 256 261 261 251 249 242 242 250 260 267 247 298 104 1 51 56 58 65 70 59 29 57 35 23 23 25 36 45 43
183 119 171 183 208 205 158 189 230 206 211 240 240 247 216 213 138 226 250 226 214 202 179 259 243 243 206 220 216 204 205 212 220 224 171 165 149 83 73 90 85 74 65 53 64 63 37 53 74 58 52 61 58 51
138 209 183 213 201 226 201 200 195 217 233 219 246 261 259 123 213 229 235 162 141 288 251 238 139 343 256 175 147 102 205 187 159 132 142 110 106 122 109 95 79 56 75 61 59 63 67 58 54 57 68 74 76 83
220 185 212 189 160 217 205 223 205 216 273 272 207 210 214 226 290 299 347 12 321 299 296 248 234 180 183 147 142 115 100 106 124 118 94 126 133 130 131 126 114 92 40 76 68 63 69 76 65 67 81 82 74 75
218 193 188 213 225 219 249 207 96 209 229 213 235 27 37 69 269 263 263 238 265 52 37 61 150 113 120 120 108 123 191 164 138 116 126 113 108 128 138 115 98 88 82 68 75 80 76 75 78 77 72 70 75 81
272 295 220 168 187 110 254 238 211 226 289 11 350 148 218 219 37 244 235 192 187 89 80 76 64 76 117 127 137 144 155 142 132 126 124 125 136 125 110 107 90 9 48 34 44 95 98 91 83 77 76 77 76 74
245 203 254 165 212 214 233 307 38 27 62 223 253 325 68 87 150 126 158 163 112 235 126 134 148 166 161 146 139 151 141 152 149 151 127 126 136 145 149 143 169 153 110 106 47 45 64 72 78 92 91 88 86 82
177 188 264 274 245 88 79 197 214 222 213 242 295 262 138 142 134 109 170 26 54 65 93 123 141 146 151 153 150 152 177 199 186 166 162 151 141 147 158 154 142 134 133 134 129 125 124 142 157 150 119 108 104 105
16 284 277 300 291 264 180 217 230 230 231 209 187 202 124 128 132 76 354 353 316 159 127 116 130 128 130 136 139 162 152 174 166 158 353 107 136 157 172 163 131 156 162 149 161 168 152 159 108 112 85 73 68 27
37 294 317 298 295 344 239 238 266 192 163 158 151 162 154 154 139 102 30 321 209 187 64 125 145 130 127 105 100 89 15 120 160 173 162 273 277 164 143 76 102 185 164 113 312 332 181 86 22 93 128 116 103 100
223 211 218 233 223 227 173 255 192 138 141 140 122 139 133 92 92 80 88 33 9 351 349 334 23 66 82 65 54 76 70 84 79 54 58 51 20 340 275 168 159 185 197 222 181 158 272 251 186 262 212 238 140 140